Location: Augsburg
(48.3836°N, 10.8929°E)
Time: 17:58:18
(UTC+02:00)

ISS - Pass Details

Date: 07 January 2018
Orbit: 401 x 409 km, 51.6° (Epoch: 19 August)

Event Time Altitude Azimuth Distance (km) Brightness Sun altitude
Exits shadow 06:09:05 46° 348° (NNW) 579 -3.3 -18.7°
Drops below altitude 10° 06:12:40 10° 81° (E) 1,515 0.1 -18.1°
Enters shadow 07:05:58 -74° 284° (WNW) 12,702 3.7 -9.7°
Maximum altitude 07:46:13 78° 204° (SSW) 439 -3.6 -3.8°
